Normandy Park, Washington, United States
Lat: 47.44N, Lon: 122.34W
Wx Zone: WAZ508
Local Info
Past Weather Observations for Today

NOTE: This archive is for the closest National Weather Service station to Normandy Park. Information may differ from the station used for current weather conditions.

Click here for Long-term Archive

Time Weather Temperature Dewpoint Humidity Pressure Winds Precip Visibility
22:53
Overcast
52°F / 11°C 46°F / 8°C 82% 30.27 in
(1025 mb)
S 5.8 mph
(S 9 kph)
- 7SM
21:53
Overcast
54°F / 12°C 46°F / 8°C 77% 30.27 in
(1025 mb)
SSE 4.6 mph
(SSE 7 kph)
- 10SM
20:53
Overcast
54°F / 12°C 45°F / 7°C 72% 30.24 in
(1024 mb)
SSE 6.9 mph
(SSE 11 kph)
- 10SM
19:53
Overcast
54°F / 12°C 43°F / 6°C 67% 30.24 in
(1024 mb)
SW 6.9 mph
(SW 11 kph)
- 10SM
18:53
Overcast
55°F / 13°C 43°F / 6°C 63% 30.24 in
(1024 mb)
SSE 8.1 mph
(SSE 13 kph)
- 10SM
17:53
Overcast
57°F / 14°C 39°F / 4°C 51% 30.24 in
(1024 mb)
SW 6.9 mph
(SW 11 kph)
- 10SM
16:53
Overcast
57°F / 14°C 39°F / 4°C 51% 30.24 in
(1024 mb)
SW 5.8 mph
(SW 9 kph)
- 10SM
15:53
Mostly Cloudy
59°F / 15°C 39°F / 4°C 48% 30.24 in
(1024 mb)
Variable 3.5 mph
(Variable 6 kph)
- 10SM
14:53
Mostly Cloudy
59°F / 15°C 39°F / 4°C 48% 30.21 in
(1023 mb)
SSW 8.1 mph
(SSW 13 kph)
- 10SM
13:53
Mostly Cloudy
59°F / 15°C 41°F / 5°C 51% 30.24 in
(1024 mb)
SW 9.2 mph
(SW 15 kph)
- 10SM
12:53
Mostly Cloudy
57°F / 14°C 39°F / 4°C 51% 30.24 in
(1024 mb)
SW 5.8 mph
(SW 9 kph)
- 10SM
11:53
Overcast
55°F / 13°C 39°F / 4°C 55% 30.24 in
(1024 mb)
SW 6.9 mph
(SW 11 kph)
- 10SM
10:53
Mostly Cloudy
54°F / 12°C 37°F / 3°C 54% 30.24 in
(1024 mb)
S 6.9 mph
(S 11 kph)
- 10SM
09:53
Overcast
52°F / 11°C 37°F / 3°C 58% 30.21 in
(1023 mb)
SSE 3.5 mph
(SSE 6 kph)
- 10SM
08:53
Mostly Cloudy
48°F / 9°C 37°F / 3°C 66% 30.21 in
(1023 mb)
SSE 4.6 mph
(SSE 7 kph)
- 10SM
07:53
Overcast
46°F / 8°C 36°F / 2°C 66% 30.18 in
(1022 mb)
SSE 6.9 mph
(SSE 11 kph)
- 10SM
06:53
Mostly Cloudy
43°F / 6°C 36°F / 2°C 76% 30.18 in
(1022 mb)
SE 6.9 mph
(SE 11 kph)
- 10SM
05:53
Mostly Cloudy
43°F / 6°C 36°F / 2°C 76% 30.15 in
(1021 mb)
SE 5.8 mph
(SE 9 kph)
- 10SM
04:53
Partly Cloudy
39°F / 4°C 36°F / 2°C 87% 30.15 in
(1021 mb)
SSE 4.6 mph
(SSE 7 kph)
- 10SM
03:53
Clear
39°F / 4°C 36°F / 2°C 87% 30.12 in
(1020 mb)
S 5.8 mph
(S 9 kph)
- 10SM
02:53
Clear
43°F / 6°C 36°F / 2°C 76% 30.12 in
(1020 mb)
SE 5.8 mph
(SE 9 kph)
- 10SM
01:53
Clear
43°F / 6°C 36°F / 2°C 76% 30.12 in
(1020 mb)
ESE 6.9 mph
(ESE 11 kph)
- 10SM
00:53
Clear
43°F / 6°C 36°F / 2°C 76% 30.12 in
(1020 mb)
S 4.6 mph
(S 7 kph)
- 10SM
Time Weather Temperature Dewpoint Humidity Pressure Winds Precip Visibility


Weather for websites

WeatherForYou.com, LLC is not responsible for any damages or problems caused by this service. Current weather conditions are obtained from the closest station including government and personal stations which may have varying degrees of accuracy. Weather forecasts are derived from the NOAA NDFD. Like all things, this site belongs to Jesus Christ... He just trusts us to maintain it. If you have any questions or comments email webmaster@weatherforyou.com

Copyright © 2015, WeatherForYou.com LLC. All rights reserved.